TimeEST,TemperatureF,Dew PointF,Humidity,Sea Level PressureIn,VisibilityMPH,Wind Direction,Wind SpeedMPH,Gust SpeedMPH,PrecipitationIn,Events,Conditions,WindDirDegrees,DateUTC
12:03 AM,33.8,32.0,93,29.92,7.0,WSW,3.5,-,N/A,,Overcast,240,2013-02-23 05:03:00
12:53 AM,33.1,30.0,89,29.95,9.0,SW,8.1,-,N/A,,Overcast,230,2013-02-23 05:53:00
1:25 AM,32.0,28.4,87,29.93,10.0,WSW,6.9,17.3,N/A,,Overcast,250,2013-02-23 06:25:00
1:53 AM,32.0,28.0,85,29.95,8.0,WSW,5.8,-,N/A,,Overcast,240,2013-02-23 06:53:00
2:07 AM,32.0,28.4,87,29.93,8.0,WSW,5.8,-,N/A,,Overcast,240,2013-02-23 07:07:00
2:35 AM,32.0,26.6,80,29.92,10.0,WSW,6.9,18.4,N/A,,Overcast,250,2013-02-23 07:35:00
2:53 AM,32.0,25.0,75,29.95,10.0,WSW,10.4,20.7,N/A,,Overcast,250,2013-02-23 07:53:00
3:53 AM,30.9,23.0,72,29.94,10.0,WSW,11.5,17.3,N/A,,Overcast,250,2013-02-23 08:53:00
4:53 AM,30.0,23.0,75,29.95,10.0,WSW,6.9,-,N/A,,Overcast,240,2013-02-23 09:53:00
5:01 AM,30.2,21.2,69,29.92,10.0,SW,8.1,-,N/A,,Overcast,230,2013-02-23 10:01:00
5:53 AM,28.9,21.9,75,29.96,10.0,SW,5.8,-,N/A,,Overcast,230,2013-02-23 10:53:00
7:53 AM,28.9,21.9,75,29.98,9.0,WSW,5.8,-,N/A,,Overcast,240,2013-02-23 12:53:00
8:24 AM,28.4,21.2,74,29.96,8.0,WSW,8.1,-,N/A,,Overcast,240,2013-02-23 13:24:00
8:53 AM,28.9,21.9,75,29.99,9.0,WSW,8.1,-,N/A,,Overcast,250,2013-02-23 13:53:00
9:53 AM,30.0,18.0,61,29.98,10.0,WSW,9.2,19.6,N/A,,Overcast,250,2013-02-23 14:53:00
10:29 AM,28.4,17.6,64,29.94,10.0,West,10.4,19.6,N/A,,Overcast,260,2013-02-23 15:29:00
10:40 AM,30.2,17.6,60,29.95,10.0,WSW,10.4,19.6,N/A,,Overcast,250,2013-02-23 15:40:00
10:53 AM,30.0,18.0,61,29.98,10.0,WSW,8.1,-,N/A,,Overcast,250,2013-02-23 15:53:00
11:00 AM,30.2,19.4,64,29.96,10.0,Variable,6.9,-,N/A,,Overcast,0,2013-02-23 16:00:00
11:20 AM,30.2,17.6,60,29.95,10.0,WSW,8.1,18.4,N/A,,Overcast,250,2013-02-23 16:20:00
11:48 AM,30.2,17.6,60,29.94,10.0,West,8.1,16.1,N/A,,Overcast,270,2013-02-23 16:48:00
11:53 AM,30.0,18.0,61,29.97,10.0,WSW,11.5,18.4,N/A,,Overcast,250,2013-02-23 16:53:00
12:26 PM,30.2,19.4,64,29.95,10.0,SW,11.5,17.3,N/A,,Overcast,230,2013-02-23 17:26:00
12:37 PM,30.2,19.4,64,29.95,10.0,WSW,10.4,16.1,N/A,,Overcast,240,2013-02-23 17:37:00
12:53 PM,30.9,19.9,64,29.96,10.0,WSW,6.9,-,N/A,,Overcast,250,2013-02-23 17:53:00
1:01 PM,30.2,19.4,64,29.94,10.0,SW,10.4,-,N/A,,Overcast,230,2013-02-23 18:01:00
1:27 PM,30.2,19.4,64,29.92,10.0,SW,11.5,-,N/A,,Overcast,230,2013-02-23 18:27:00
1:49 PM,30.2,19.4,64,29.93,10.0,West,8.1,-,N/A,,Overcast,260,2013-02-23 18:49:00
1:53 PM,30.0,19.9,66,29.95,10.0,WSW,6.9,-,N/A,,Overcast,240,2013-02-23 18:53:00
2:53 PM,30.9,19.9,64,29.94,10.0,West,9.2,-,N/A,,Overcast,260,2013-02-23 19:53:00
3:02 PM,30.2,21.2,69,29.91,10.0,WSW,9.2,-,N/A,,Overcast,250,2013-02-23 20:02:00
3:41 PM,30.2,19.4,64,29.91,10.0,WSW,11.5,-,N/A,,Overcast,250,2013-02-23 20:41:00
3:53 PM,30.9,19.9,64,29.94,10.0,WSW,11.5,16.1,N/A,,Overcast,250,2013-02-23 20:53:00
4:53 PM,30.9,19.9,64,29.95,10.0,Variable,6.9,-,N/A,,Overcast,0,2013-02-23 21:53:00
5:53 PM,30.0,19.0,64,29.95,10.0,WSW,4.6,-,N/A,,Overcast,250,2013-02-23 22:53:00
6:53 PM,30.0,19.0,64,29.96,10.0,Variable,6.9,-,N/A,,Overcast,0,2013-02-23 23:53:00
7:53 PM,28.9,19.0,67,29.97,10.0,Variable,3.5,-,N/A,,Overcast,0,2013-02-24 00:53:00
8:53 PM,28.9,19.0,67,29.98,10.0,WSW,5.8,-,N/A,,Overcast,250,2013-02-24 01:53:00
11:53 PM,27.0,19.0,72,29.96,10.0,West,4.6,-,N/A,,Overcast,280,2013-02-24 04:53:00